TimeAKDT,TemperatureF,Dew PointF,Humidity,Sea Level PressureIn,VisibilityMPH,Wind Direction,Wind SpeedMPH,Gust SpeedMPH,PrecipitationIn,Events,Conditions,WindDirDegrees,DateUTC
12:53 AM,30.9,25.0,79,29.98,10.0,WSW,9.2,-,N/A,,Overcast,240,2013-08-21 08:53:00
1:53 AM,30.9,24.1,76,29.98,10.0,WSW,9.2,-,N/A,,Overcast,240,2013-08-21 09:53:00
2:53 AM,30.0,24.1,79,29.98,10.0,West,8.1,-,N/A,,Overcast,260,2013-08-21 10:53:00
3:29 AM,30.2,24.8,80,29.97,10.0,West,9.2,-,N/A,,Overcast,260,2013-08-21 11:29:00
3:42 AM,30.2,24.8,80,29.96,10.0,West,8.1,-,N/A,,Overcast,260,2013-08-21 11:42:00
3:53 AM,30.0,24.1,79,29.96,10.0,West,9.2,-,N/A,,Overcast,260,2013-08-21 11:53:00
4:53 AM,30.0,24.1,79,29.96,10.0,WSW,9.2,-,N/A,,Overcast,250,2013-08-21 12:53:00
5:53 AM,30.0,24.1,79,29.96,10.0,WSW,8.1,-,N/A,,Overcast,240,2013-08-21 13:53:00
6:48 AM,30.2,24.8,80,29.94,10.0,WSW,10.4,-,N/A,,Overcast,240,2013-08-21 14:48:00
6:53 AM,30.9,24.1,76,29.94,10.0,WSW,8.1,-,N/A,,Overcast,240,2013-08-21 14:53:00
7:53 AM,30.9,25.0,79,29.93,10.0,WSW,9.2,-,N/A,,Overcast,240,2013-08-21 15:53:00
8:35 AM,30.2,24.8,80,29.92,10.0,WSW,10.4,-,N/A,,Overcast,240,2013-08-21 16:35:00
8:53 AM,32.0,26.1,79,29.92,10.0,SW,9.2,-,N/A,,Overcast,230,2013-08-21 16:53:00
9:53 AM,32.0,26.1,79,29.91,10.0,WSW,9.2,-,N/A,,Overcast,240,2013-08-21 17:53:00
10:53 AM,33.1,28.0,82,29.90,10.0,WSW,9.2,-,N/A,,Overcast,250,2013-08-21 18:53:00
11:53 AM,35.1,28.9,78,29.89,10.0,West,6.9,-,N/A,,Overcast,260,2013-08-21 19:53:00
12:53 PM,37.0,30.0,76,29.87,10.0,WSW,6.9,-,N/A,,Overcast,250,2013-08-21 20:53:00
1:53 PM,37.9,30.9,76,29.86,10.0,NW,5.8,-,N/A,,Overcast,310,2013-08-21 21:53:00
2:53 PM,39.0,30.9,73,29.86,10.0,NW,4.6,-,N/A,,Overcast,320,2013-08-21 22:53:00
3:53 PM,39.0,30.9,73,29.85,10.0,WNW,4.6,-,N/A,,Overcast,290,2013-08-21 23:53:00
4:53 PM,37.9,33.1,83,29.83,10.0,North,8.1,-,N/A,,Overcast,360,2013-08-22 00:53:00
5:53 PM,37.9,33.1,83,29.82,6.0,North,3.5,-,0.00,Rain,Light Rain,360,2013-08-22 01:53:00
6:14 PM,39.2,33.8,81,29.81,10.0,North,5.8,-,0.00,Rain,Light Rain,350,2013-08-22 02:14:00
6:53 PM,39.0,33.1,79,29.81,10.0,North,6.9,-,0.00,Rain,Light Rain,350,2013-08-22 02:53:00
6:57 PM,39.2,33.8,81,29.80,10.0,North,6.9,-,0.00,Rain,Light Rain,350,2013-08-22 02:57:00
7:53 PM,37.9,30.9,76,29.79,10.0,North,6.9,-,0.00,,Scattered Clouds,360,2013-08-22 03:53:00
8:53 PM,37.0,30.9,79,29.79,10.0,North,9.2,-,N/A,,Partly Cloudy,10,2013-08-22 04:53:00
9:19 PM,35.6,30.2,81,29.78,10.0,North,8.1,-,N/A,,Mostly Cloudy,360,2013-08-22 05:19:00
9:53 PM,36.0,30.0,79,29.78,10.0,North,9.2,-,N/A,,Mostly Cloudy,360,2013-08-22 05:53:00
10:53 PM,35.1,30.0,82,29.78,10.0,NNW,3.5,-,N/A,,Mostly Cloudy,330,2013-08-22 06:53:00
11:53 PM,35.1,30.9,85,29.78,10.0,NNW,5.8,-,N/A,,Overcast,340,2013-08-22 07:53:00